User: anonymous   Login
Location: Vancouver
(49.2500°N, 123.1330°W)
Time: 15:12:38
(UTC-08:00)
Language:

Cosmos 1939 Rocket - Orbit

View from above orbital plane
View from above orbital plane
View from above satellite
View from above satellite

Ground track
Ground track

The orbit data is extracted from the following two-line orbital elements,

1 19046U 88032B   18050.90544554 -.00000203 +00000-0 -10619-4 0  9999
2 19046 097.4983 095.2024 0036082 206.2504 153.6894 15.02389519609545
Epoch (UTC): 19 February 2018 21:43:50
Eccentricity: 0.0036082
inclination: 97.4983°
perigee height: 534 km
apogee height: 584 km
right ascension of ascending node: 95.2024°
argument of perigee: 206.2504°
revolutions per day: 15.02389519
mean anomaly at epoch: 153.6894°
orbit number at epoch: 60954

The dashed part of the orbit path shows where the satellite is in the earth's shadow,  

DLR